Regional Weather Roundup
Issued by NWS

Home | Current Version | Previous Version | Graphics & Text | Print | Product List | Glossary On
Versions: 1 2 3 4 5 6 7 8 9 10 11 12 13 14 15 16 17 18 19 20 21 22 23 24 25 26 27
000
ASUS45 KBOI 272110
RWRID

IDAHO REGIONAL WEATHER ROUNDUP
NATIONAL WEATHER SERVICE BOISE ID
300 PM MDT WED JUL 27 2016

NOTE: "FAIR" INDICATES FEW OR NO CLOUDS BELOW 12000 FEET
WITH NO SIGNIFICANT WEATHER AND/OR OBSTRUCTIONS TO VISIBILITY

IDZ012-014-272200-
SOUTHWEST IDAHO


CITY           SKY/WX    TMP DP  RH WIND       PRES   REMARKS
BOISE          SUNNY     96  44  16 VRB5      29.99F HX  92
CALDWELL       SUNNY     94  52  24 VRB3      29.98F HX  91
MOUNTAIN HOME  SUNNY     97  42  15 N5        29.98F HX  93
$$

IDZ016-017-272200-
SOUTHCENTRAL IDAHO


CITY           SKY/WX    TMP DP  RH WIND       PRES   REMARKS
BURLEY         SUNNY     92  47  21 NE6       30.09F
JEROME         SUNNY     96  39  13 VRB5      30.09F HX  91
TWIN FALLS     SUNNY     94  41  16 N8        30.09F HX  90
$$

IDZ019>023-272200-
SOUTHEAST IDAHO


CITY           SKY/WX    TMP DP  RH WIND       PRES   REMARKS
IDAHO FALLS    SUNNY     90  36  14 VRB6      30.15F
POCATELLO      SUNNY     93  37  14 W8        30.14F
REXBURG        SUNNY     90  35  14 SW13      30.16F
$$

IDZ006-010-011-018-031-032-272200-
CENTRAL IDAHO MOUNTAINS


CITY           SKY/WX    TMP DP  RH WIND       PRES   REMARKS
MCCALL         PTSUNNY   86  36  16 W9G17     30.18F
HAILEY         MOSUNNY   73  45  35 S12       30.18
STANLEY          N/A     85  32  15 N6G21     30.27F
SALMON         SUNNY     88  46  23 N3        30.04F
CHALLIS        SUNNY     90  36  14 NE7       30.12F
$$

IDZ002-004-006-007-026-272200-
NORTHERN IDAHO


CITY           SKY/WX    TMP DP  RH WIND       PRES   REMARKS
LEWISTON       SUNNY     96  52  22 N6        29.98F HX  93
LOWELL           N/A     95  55  26 SE5       29.96F HX  93
COEUR D`ALENE  SUNNY     88  55  33 S6        30.02F
MULLAN PASS    MOSUNNY   76  46  34 VRB3      30.28S
$$




USA.gov is the U.S. government's official web portal to all federal, state and local government web resources and services.